This demonstration page uses our WeatherBlox Daily Observations layout. Learn more.

Left ArrowRight Arrow

38.80484, -77.04692

Hourly Observations for April 27, 2018

Temp ( °F °C ) Dew Point ( °F °C ) Humidity (%) Winds ( mph kmh ) Pressure ( in mb ) Visibility ( mi km ) Precip ( " mm )
12:52 am 00:52 Cloudy 60 15.6 46 7.8 60 60 NE 7 11 29.83 1010 10 16 0.00 0.00
1:43 am 01:43 Cloudy with Nearby Thunderstorms 59 15 47 8.3 64 64 NE 8 13 29.83 1010 10 16 0.00 0.00
1:52 am 01:52 Cloudy with Nearby Thunderstorms 59 15 47 8.3 64 64 NE 7 11 29.80 1009 10 16 0.00 0.00
2:07 am 02:07 Cloudy with Thunderstorms 59 15 46 7.8 62 62 NE 8 13 29.80 1009 10 16 0.00 0.00
2:38 am 02:38 Cloudy with Nearby Thunderstorms 59 15 48 8.9 67 67 NE 6 9 29.77 1008 10 16 0.00 0.00
2:52 am 02:52 Cloudy with Nearby Thunderstorms 59 15 48 8.9 67 67 NE 6 9 29.78 1009 10 16 0.00 0.03
2:59 am 02:59 Cloudy with Light Rain 58 14.4 48 8.9 70 70 NE 5 7 29.77 1008 10 16 0.00 0.03
3:05 am 03:05 Cloudy with Thunderstorms 58 14.4 49 9.4 72 72 ENE 3 6 29.80 1009 10 16 0.00 0.03
3:27 am 03:27 Cloudy with Rain 57 13.9 49 9.4 74 74 ENE 3 6 29.77 1008 8 13 0.05 1.27
3:52 am 03:52 Cloudy with Rain 56 13.3 50 10 81 81 S 6 9 29.80 1009 5 8 0.16 4.06
3:57 am 03:57 Cloudy with Thunderstorms 56 13.3 50 10 81 81 SSE 3 6 29.80 1009 5 8 0.01 0.25
4:25 am 04:25 Cloudy with Rain 55 12.8 50 10 83 83 ESE 3 6 29.80 1009 4 6 0.13 3.30
4:52 am 04:52 Cloudy with Rain 55 12.8 52 11.1 90 90 NE 10 17 29.77 1008 5 8 0.25 6.35
5:24 am 05:24 Cloudy with Light Rain 55 12.8 52 11.1 90 90 N 9 15 29.77 1008 8 13 0.06 1.52
5:38 am 05:38 Cloudy with Rain 55 12.8 52 11.1 90 90 NNE 12 19 29.77 1008 4 6 0.12 3.05
5:52 am 05:52 Cloudy with Rain 55 12.8 52 11.1 90 90 N 6 9 29.77 1008 5 8 0.15 3.81
6:09 am 06:09 Cloudy with Rain 55 12.8 52 11.1 90 90 N 6 9 29.77 1008 3 5 0.10 2.54
6:27 am 06:27 Cloudy with Light Rain 55 12.8 52 11.1 90 90 NNE 13 20 29.77 1008 5 8 0.12 3.05
6:52 am 06:52 Cloudy with Light Rain 55 12.8 52 11.1 90 90 NE 9 15 29.77 1008 7 11 0.13 3.30
6:59 am 06:59 Cloudy with Light Rain 55 12.8 52 11.1 90 90 NE 13 20 29.77 1008 4 6 0.00 0.03
7:03 am 07:03 Cloudy with Light Rain 55 12.8 52 11.1 90 90 NE 14 22 29.77 1008 4 6 0.00 0.03
7:24 am 07:24 Cloudy with Light Rain 55 12.8 52 11.1 90 90 NE 16 26 29.77 1008 2 3 0.02 0.51
7:30 am 07:30 Cloudy with Light Rain 55 12.8 52 11.1 90 90 NE 15 24 29.77 1008 2 2 0.02 0.51
7:52 am 07:52 Cloudy with Mist and Fog 55 12.8 52 11.1 90 90 NE 13 20 29.78 1008 2 3 0.02 0.51
8:13 am 08:13 Cloudy with Light Rain 55 12.8 52 11.1 90 90 NNE 15 24 29.80 1009 2 3 0.00 0.03
8:35 am 08:35 Cloudy with Mist and Fog 54 12.2 51 10.6 90 90 NE 12 19 29.80 1009 3 4 0.01 0.25
8:52 am 08:52 Cloudy with Drizzle 54 12.2 51 10.6 90 90 NNE 12 19 29.79 1009 3 4 0.01 0.25
9:15 am 09:15 Cloudy with Mist and Fog 54 12.2 51 10.6 90 90 NNE 12 19 29.77 1008 4 6 0.00 0.03
9:52 am 09:52 Cloudy 55 12.8 51 10.6 87 87 NNE 9 15 29.77 1008 7 11 0.00 0.03
10:12 am 10:12 Cloudy 55 12.8 51 10.6 87 87 NNE 10 17 29.77 1008 8 13 0.00 0.00
10:52 am 10:52 Cloudy 57 13.9 51 10.6 81 81 NNE 9 15 29.78 1008 8 13 0.00 0.00
11:27 am 11:27 Cloudy 57 13.9 51 10.6 81 81 NE 9 15 29.77 1008 10 16 0.00 0.00
11:47 am 11:47 Cloudy 57 14 50 10 77 77 NE 7 11 29.80 1009 10 16 0.00 0.00
11:52 am 11:52 Cloudy 56 13.3 50 10 81 81 NNE 7 11 29.79 1009 10 16 0.00 0.00
12:22 pm 12:22 Cloudy 57 13.9 51 10.6 81 81 N 7 11 29.77 1008 10 16 0.00 0.00
12:40 pm 12:40 Cloudy 56 13.3 51 10.6 84 84 NNW 6 9 29.77 1008 10 16 0.00 0.00
12:52 pm 12:52 Cloudy 56 13.3 51 10.6 84 84 N 6 9 29.78 1009 9 14 0.00 0.00
1:18 pm 13:18 Cloudy 58 14.4 51 10.6 78 78 N 6 9 29.77 1008 10 16 0.00 0.00
1:52 pm 13:52 Cloudy 59 15 51 10.6 75 75 N 5 7 29.77 1008 10 16 0.00 0.00
2:52 pm 14:52 Cloudy 60 15.6 51 10.6 72 72 ESE 5 7 29.76 1008 10 16 0.00 0.00
3:45 pm 15:45 Cloudy 61 16.1 51 10.6 70 70 S 6 9 29.74 1007 10 16 0.00 0.00
3:52 pm 15:52 Cloudy 60 15.6 51 10.6 72 72 S 6 9 29.75 1008 10 16 0.00 0.00
4:00 pm 16:00 Mostly Cloudy 60 15.6 51 10.6 72 72 S 7 11 29.74 1007 10 16 0.00 0.00
4:49 pm 16:49 Mostly Cloudy 61 16 52 11 72 72 S 5 7 29.74 1007 10 16 0.00 0.00
4:52 pm 16:52 Mostly Cloudy 61 16.1 52 11.1 72 72 S 5 7 29.75 1008 10 16 0.00 0.00
5:32 pm 17:32 Mostly Cloudy 63 17.2 52 11.1 68 68 ENE 3 6 29.74 1007 10 16 0.00 0.00
5:52 pm 17:52 Mostly Cloudy 62 16.7 52 11.1 70 70 ENE 5 7 29.75 1007 10 16 0.00 0.00
6:52 pm 18:52 Mostly Cloudy 62 16.7 50 10 65 65 E 3 6 29.74 1007 10 16 0.00 0.00
7:52 pm 19:52 Mostly Cloudy 62 16.7 51 10.6 67 67 SE 3 6 29.75 1007 10 16 0.00 0.00
8:52 pm 20:52 Partly Cloudy 61 16.1 51 10.6 70 70 SSE 6 9 29.75 1008 10 16 0.00 0.00
9:52 pm 21:52 Mostly Clear 60 15.6 51 10.6 72 72 Calm 29.77 1008 10 16 0.00 0.00
10:52 pm 22:52 Mostly Clear 58 14.4 52 11.1 81 81 SSE 3 6 29.78 1008 10 16 0.00 0.00
11:52 pm 23:52 Mostly Cloudy 57 13.9 52 11.1 83 83 Calm 29.79 1009 10 16 0.00 0.00

Powered by AerisWeather